Flag for Germany Weather past 2 weeks in Meiningen, Thuringia, Germany

Now
41 °F

Overcast.


Feels Like: 41 °F
Forecast: 34 / 60 °F
Wind: 2 mph from North

Location: Meiningen


UV Index: 3 (Moderate)

Visibility: 13 mi


Pressure: 29.92 "Hg

Humidity: 82%

Dew point: 36 °F

Location of MeiningenLocation

Historic Weather in Meiningen

°F

Meiningen temperature yesterday

Maximum temperature yesterday: 53 °F (at 4:00 PM)
Minimum temperature yesterday: 30 °F (at 4:00 AM)
Average temperature yesterday: 42 °F

Past Weeks' High & Low Weather Summary

 TemperatureHumidityPressure
High66 °F (Apr 4, 1:00 PM)99% (Apr 12, 9:00 AM)30.45 "Hg (Apr 12, 9:00 AM)
Low30 °F (Apr 17, 4:00 AM)31% (Apr 3, 7:00 PM)29.64 "Hg (Apr 3, 7:00 PM)
Average49 °F71%30.06 "Hg
* Reported Apr 3 7:00 PM — Apr 18 7:00 PM, Meiningen, Weather by CustomWeather, © 2014

Note: Actual official high and low records may vary slightly from our data, if they occured in-between our weather recording intervals... More about our weather records

Advertising

Historic Weather Conditions — Data for Previous 24 hours

 ConditionsComfort  
Time TempWeatherWind HumidityBarometerVisibility
7:00 PM
Apr 18
42 °FOvercast.6 mph76%29.90 "Hg31 mi
6:00 PM42 °FPartly sunny.3 mph75%29.90 "Hg31 mi
5:00 PM49 °FPartly sunny.7 mph50%29.85 "Hg31 mi
4:00 PM47 °FScattered clouds.9 mph53%29.85 "Hg37 mi
3:00 PM47 °FPartly sunny.8 mph52%29.84 "Hg43 mi
2:00 PM44 °FSprinkles. Partly sunny.8 mph78%29.86 "Hg31 mi
1:00 PM40 °FScattered clouds.5 mph86%29.88 "Hg34 mi
12:00 PM44 °FScattered clouds.6 mph79%29.86 "Hg17 mi
11:00 AM43 °FPartly sunny.6 mph77%29.85 "Hg17 mi
10:00 AM40 °FPartly sunny.3 mph90%29.87 "Hg14 mi
9:00 AM38 °FSprinkles. Low clouds.6 mph92%29.86 "Hg16 mi
8:00 AM40 °FRain showers. Low clouds.7 mph89%29.85 "Hg4 mi
7:00 AM43 °FRain. Low clouds.3 mph89%29.82 "Hg6 mi
6:00 AM43 °FLight rain. Overcast.3 mph86%29.82 "Hg12 mi
5:00 AM43 °FLight rain. Overcast.5 mph83%29.84 "Hg9 mi
4:00 AM44 °FLight rain. Overcast.5 mph74%29.87 "Hg7 mi
3:00 AM42 °FOvercast.1 mph60%29.88 "Hg22 mi
2:00 AM40 °FOvercast.2 mph63%29.90 "Hg22 mi
Weather by CustomWeather, © 2014

See weather overview